Regional Weather Roundup
Issued by NWS

Home | Current Version | Previous Version | Graphics & Text | Print | Product List | Glossary On
Versions: 1 2 3 4 5 6 7 8 9 10 11 12 13 14 15 16 17 18 19 20 21 22 23 24 25 26 27 28 29 30 31 32 33 34 35 36 37 38 39 40 41 42 43 44 45 46 47 48 49 50
713
ASUS45 KBOU 231207
RWRCO

WEATHER ROUNDUP FOR COLORADO
NATIONAL WEATHER SERVICE DENVER/BOULDER CO
600 AM MDT SUN JUL 23 2017

NOTE: "FAIR" INDICATES FEW OR NO CLOUDS BELOW 12000 FEET WITH NO
SIGNIFICANT WEATHER AND/OR OBSTRUCTIONS TO VISIBILITY.

COZ001>005-013-030-031-231300-
...NORTHWEST COLORADO...

CITY           SKY/WX    TMP DP  RH WIND       PRES   REMARKS
CRAIG          FAIR      45  40  82 CALM      30.26R
HAYDEN         FAIR      54  34  47 E16       30.29R
MEEKER         FAIR      49  40  71 CALM      30.28R
RABBIT EARS PA FAIR      55  32  41 CALM      30.59R
STEAMBOAT SPGS FAIR      47  38  72 CALM      30.32S
WALDEN         FAIR      39  34  81 SE7       30.44R
$$

COZ006>008-011-231300-
...WEST CENTRAL VALLEYS...

CITY           SKY/WX    TMP DP  RH WIND       PRES   REMARKS
GRAND JUNCTION FAIR      66  49  54 E10       30.14R
MONTROSE       FAIR      57  48  72 SE9       30.24R
EAGLE          FAIR      51  43  74 E3        30.36R
RIFLE          FAIR      57  45  64 CALM      30.23R
DELTA          FAIR      64  49  58 N8        30.20R
NUCLA          FAIR      59  43  55 E9        30.27R
$$

COZ017>023-064>068-231300-
...SOUTHWEST COLORADO...

CITY           SKY/WX    TMP DP  RH WIND       PRES   REMARKS
DURANGO        CLOUDY    59  51  75 N3        30.31R
CORTEZ         FAIR      53  51  93 CALM      30.23R
PAGOSA SPRINGS FAIR      56  49  78 CALM      30.38S
TELLURIDE      FAIR      52  41  66 CALM      30.48R
WOLF CREEK PAS CLOUDY    45  37  76 N3        30.71R
$$

COZ009-010-012-014-032>034-037-058>063-231300-
...CENTRAL COLORADO...

CITY           SKY/WX    TMP DP  RH WIND       PRES   REMARKS
ASPEN          FAIR      51  42  71 SW3       30.38R
BUENA VISTA    FAIR      49  46  89 CALM      30.43R
COPPER MTN     FAIR      54  32  43 S7        30.69S
BERTHOUD PASS  FAIR      45  32  61 SE8       30.74R
COTTONWOOD PAS FAIR      59  39  47 CALM      30.54R
GUNNISON       FAIR      47  45  93 CALM      30.43
KREMMLING      FAIR      48  39  71 CALM      30.41S
LEADVILLE      FAIR      38  36  92 NE5       30.54S
MONARCH PASS   FAIR      46  36  66 NE8       30.78R
SALIDA         FAIR      52  48  87 W3        30.48R
SUNLIGHT       FAIR      48  36  61 E7        30.62R
WILKERSON PASS FAIR      50  37  62 NE7       30.67S
$$

COZ069>075-231300-
...SAN LUIS VALLEY/SANGRE DE CRISTO MOUNTAINS...

CITY           SKY/WX    TMP DP  RH WIND       PRES   REMARKS
ALAMOSA        FAIR      52  51  97 CALM      30.37R
DEL NORTE      FAIR      53  47  81 W13       30.41R
LA VETA PASS   NOT AVBL
SAGUACHE         N/A    N/A N/A N/A MISG        N/A
$$

COZ035-036-038>040-231300-
...NORTHERN COLORADO FRONT RANGE...

CITY           SKY/WX    TMP DP  RH WIND       PRES   REMARKS
DENVER INTL AP FAIR      63  52  67 W8        30.20R
DMNS CITY PARK   N/A     64  52  64 E7        30.21R
AURORA         PTCLDY    62  53  73 SW6       30.23R
FRONT RANGE AP FAIR      63  54  72 SW6       30.22R
ERIE MUNI ARPT FAIR      59  53  80 CALM      30.20R
BOULDER MUN AP FAIR      63  50  63 S3        30.20S
CENTENNIAL     FAIR      61  52  72 W7        30.24R
BROOMFIELD     PTCLDY    63  48  59 CALM      30.24R
FORT COLLINS   FAIR      60  51  72 N6        30.20R
LONGMONT       FAIR      58  51  77 NW5       30.21R
$$

COZ041-046-047-076>085-087-088-231300-
...PIKES PEAK/PALMER DIVIDE AND SOUTHERN FOOTHILLS...

CITY           SKY/WX    TMP DP  RH WIND       PRES   REMARKS
COLO. SPRINGS  FAIR      59  55  87 N5        30.30R
A. F. ACADEMY  FAIR      52  49  91 N7        30.31R
SCHRIEVER AFB  FAIR      57  48  72 W12       30.30R
CHEYENNE MTN   FAIR      60  49  68 CALM      30.29R
ELLICOTT       FAIR     N/A N/A N/A CALM      30.28R
FALCON           N/A     55  49  81 W7        30.34S
FORT CARSON    FAIR      59  50  73 NW3       30.26S
LIMON          FAIR      53  53 100 N3        30.23R
MONUMENT HILL  FAIR      54  50  87 SW5       30.35R
CANON CITY     CLEAR     63  55  77 W6        30.24R
WALSENBURG     FAIR      63  52  67 CALM      30.27R
TRINIDAD       FAIR      64  52  64 W8        30.24S
$$

COZ042>045-048>051-090-091-231300-
...NORTHEAST COLORADO...

CITY           SKY/WX    TMP DP  RH WIND       PRES   REMARKS
GREELEY ARPT   FAIR      58  54  86 N6        30.18R
AKRON          FAIR      65  46  50 S8        30.17R
BURLINGTON     FAIR      54  53  97 CALM      30.15R
WRAY           NOT AVBL
YUMA           FAIR      55  50  82 W5        30.13S
STERLING       FAIR      57  55  94 CALM      30.13S
HOLYOKE        FAIR      59  54  82 W5        30.12S
FORT MORGAN    FAIR      61  48  62 CALM      30.17R
$$

COZ086-089-092>099-231300-
...SOUTHEAST COLORADO...

CITY           SKY/WX    TMP DP  RH WIND       PRES   REMARKS
PUEBLO         FAIR      63  48  58 NW6       30.19R
LA JUNTA       FAIR      61  54  77 NW5       30.15R
LAMAR          FAIR      60  56  86 W3        30.09S
SPRINGFIELD      N/A     61  58  90 NW9       30.12S
$$




USA.gov is the U.S. government's official web portal to all federal, state and local government web resources and services.